This is the latest recevied weather packets stored in our database for station/object SQ5RTW-1. If no packets are shown the sender has not sent any weather packets the latest 10 day(s).
| Time | Temp. | Humidity | Pressure | Rain* | Wind** | Luminosity | Snow |
|---|---|---|---|---|---|---|---|
| 1777601820 | 10° C | 52% | 1028.6 hPa | - | - | - | - |
| 1777600920 | 10° C | 51% | 1028.6 hPa | - | - | - | - |
| 1777600019 | 10° C | 50% | 1028.5 hPa | - | - | - | - |
| 1777599118 | 10° C | 49% | 1028.6 hPa | - | - | - | - |
| 1777598217 | 10° C | 48% | 1028.8 hPa | - | - | - | - |
| 1777597316 | 10° C | 48% | 1028.7 hPa | - | - | - | - |
| 1777596415 | 10.56° C | 47% | 1028.6 hPa | - | - | - | - |
| 1777595514 | 10.56° C | 47% | 1028.6 hPa | - | - | - | - |
| 1777594614 | 10.56° C | 46% | 1028.7 hPa | - | - | - | - |
| 1777593713 | 10.56° C | 46% | 1028.8 hPa | - | - | - | - |
| 1777592812 | 10.56° C | 45% | 1028.9 hPa | - | - | - | - |
| 1777591911 | 10.56° C | 45% | 1029 hPa | - | - | - | - |
| 1777591010 | 10.56° C | 45% | 1029.1 hPa | - | - | - | - |
| 1777590109 | 10.56° C | 44% | 1029.2 hPa | - | - | - | - |
| 1777589208 | 10.56° C | 43% | 1029.3 hPa | - | - | - | - |
| 1777588307 | 11.67° C | 45% | 1029.3 hPa | - | - | - | - |
| 1777588144 | 10.56° C | 44% | 1029.3 hPa | - | - | - | - |
| 1777587244 | 12.22° C | 43% | 1029.4 hPa | - | - | - | - |
| 1777587227 | 12.78° C | 44% | 1029.3 hPa | - | - | - | - |
| 1777587184 | 11.67° C | 43% | 1029.4 hPa | - | - | - | - |
| 1777587167 | 12.78° C | 44% | 1029.4 hPa | - | - | - | - |
| 1777587143 | 10.56° C | 43% | 1029.4 hPa | - | - | - | - |
| 1777586242 | 10.56° C | 45% | 1029.4 hPa | - | - | - | - |
| 1777585341 | 10.56° C | 43% | 1029.4 hPa | - | - | - | - |
| 1777584440 | 12.22° C | 42% | 1029.3 hPa | - | - | - | - |
* Rain since midnight (hover to see other rain measurements)
** Current wind speed in m/s (hover to see current wind gust speed)